,,,PA_Meas_PMT16A,,PR_Meas_QMR101_102,,RH_Meas_QMH101,,SR_Meas_QMS101,,TA_Meas_QMH101,,GenWind,,GenWind,
date,time,status,PA,status,PR,status,RH,status,SR,status,TA,status,DirAvg,status,SpdAvg,
2010-06-28, 00:00:04,VALID,1000.24,VALID,0,VALID,90.1668,VALID,0,VALID,22.7647,VALID,136,VALID,0.216406,
2010-06-28, 00:01:04,VALID,1000.22,VALID,0,VALID,90.266,VALID,0,VALID,22.7469,VALID,136,VALID,0.136328,
2010-06-28, 00:02:04,VALID,1000.26,VALID,0,VALID,90.472,VALID,0,VALID,22.7062,VALID,136,VALID,0.242188,
2010-06-28, 00:03:04,VALID,1000.24,VALID,0,VALID,90.7085,VALID,0,VALID,22.6867,VALID,117,VALID,1.03555,
2010-06-28, 00:04:04,VALID,1000.22,VALID,0,VALID,90.8535,VALID,0,VALID,22.7062,VALID,117,VALID,0.751562,
2010-06-28, 00:05:04,VALID,1000.21,VALID,0,VALID,90.8459,VALID,0,VALID,22.6672,VALID,117,VALID,0.598047,
2010-06-28, 00:06:04,VALID,1000.18,VALID,0,VALID,90.8917,VALID,0,VALID,22.6672,VALID,143,VALID,0.649219,
2010-06-28, 00:07:04,VALID,1000.15,VALID,0,VALID,90.9985,VALID,0,VALID,22.6867,VALID,179,VALID,0.783594,
2010-06-28, 00:08:04,VALID,1000.12,VALID,0,VALID,90.9451,VALID,0,VALID,22.7257,VALID,181,VALID,0.437891,
2010-06-28, 00:09:04,VALID,1000.11,VALID,0,VALID,90.8917,VALID,0,VALID,22.7257,VALID,187,VALID,0.655078,
2010-06-28, 00:10:04,VALID,1000.12,VALID,0,VALID,90.8383,VALID,0,VALID,22.7647,VALID,187,VALID,0.414844,
2010-06-28, 00:11:04,VALID,1000.09,VALID,0,VALID,90.7696,VALID,0,VALID,22.7452,VALID,187,VALID,0.471875,
2010-06-28, 00:12:04,VALID,1000.1,VALID,0,VALID,90.5636,VALID,0,VALID,22.7452,VALID,176,VALID,0.521484,
2010-06-28, 00:13:04,VALID,1000.08,VALID,0,VALID,90.6246,VALID,0,VALID,22.7452,VALID,144,VALID,0.434375,
2010-06-28, 00:14:04,VALID,1000.07,VALID,0,VALID,90.6094,VALID,0,VALID,22.7469,VALID,144,VALID,0.489844,
2010-06-28, 00:15:04,VALID,1000.07,VALID,0,VALID,90.6323,VALID,0,VALID,22.7469,VALID,85,VALID,0.782422,
2010-06-28, 00:16:04,VALID,1000.03,VALID,0,VALID,90.7162,VALID,0,VALID,22.7452,VALID,78,VALID,0.808984,
2010-06-28, 00:17:04,VALID,1000.01,VALID,0,VALID,90.8154,VALID,0,VALID,22.7452,VALID,66,VALID,0.751172,
2010-06-28, 00:18:04,VALID,999.99,VALID,0,VALID,90.7772,VALID,0,VALID,22.7257,VALID,38,VALID,0.815625,
2010-06-28, 00:19:04,VALID,999.998,VALID,0,VALID,90.6628,VALID,0,VALID,22.6867,VALID,25,VALID,0.700781,
2010-06-28, 00:20:04,VALID,999.975,VALID,0,VALID,90.762,VALID,0,VALID,22.6282,VALID,25,VALID,0.391797,
2010-06-28, 00:21:04,VALID,999.964,VALID,0,VALID,90.7391,VALID,0,VALID,22.5892,VALID,25,VALID,0.101172,
2010-06-28, 00:22:04,VALID,999.942,VALID,0,VALID,90.8535,VALID,0,VALID,22.5696,VALID,25,VALID,0.107031,
2010-06-28, 00:23:04,VALID,999.985,VALID,0,VALID,90.9451,VALID,0,VALID,22.5519,VALID,25,VALID,0.245312,
2010-06-28, 00:24:04,VALID,999.966,VALID,0,VALID,90.762,VALID,0,VALID,22.5128,VALID,25,VALID,0.213281,
2010-06-28, 00:25:04,VALID,999.969,VALID,0,VALID,90.8459,VALID,0,VALID,22.4738,VALID,25,VALID,0.355078,
2010-06-28, 00:26:04,VALID,999.982,VALID,0,VALID,91.2197,VALID,0,VALID,22.4331,VALID,25,VALID,0.404297,
2010-06-28, 00:27:04,VALID,999.995,VALID,0,VALID,91.5402,VALID,0,VALID,22.4136,VALID,27,VALID,0.584766,
2010-06-28, 00:28:04,VALID,999.978,VALID,0,VALID,91.8225,VALID,0,VALID,22.4153,VALID,29,VALID,0.603516,
2010-06-28, 00:29:04,VALID,999.981,VALID,0,VALID,91.8072,VALID,0,VALID,22.3746,VALID,60,VALID,0.715234,
2010-06-28, 00:30:04,VALID,999.958,VALID,0,VALID,91.5402,VALID,0,VALID,22.3568,VALID,67,VALID,0.539063,
2010-06-28, 00:31:04,VALID,999.951,VALID,0,VALID,91.441,VALID,0,VALID,22.3356,VALID,68,VALID,0.330859,
2010-06-28, 00:32:04,VALID,999.943,VALID,0,VALID,91.5783,VALID,0,VALID,22.2966,VALID,68,VALID,0.288672,
2010-06-28, 00:33:04,VALID,999.944,VALID,0,VALID,91.7996,VALID,0,VALID,22.2966,VALID,68,VALID,0.144531,
2010-06-28, 00:34:04,VALID,999.939,VALID,0,VALID,92.0361,VALID,0,VALID,22.3178,VALID,68,VALID,0.307031,
2010-06-28, 00:35:04,VALID,999.912,VALID,0,VALID,92.2421,VALID,0,VALID,22.3356,VALID,85,VALID,0.634766,
2010-06-28, 00:36:04,VALID,999.956,VALID,0,VALID,92.4634,VALID,0,VALID,22.3763,VALID,85,VALID,0.663672,
2010-06-28, 00:37:04,VALID,999.95,VALID,0,VALID,92.41,VALID,0,VALID,22.4136,VALID,85,VALID,0.442969,
2010-06-28, 00:38:04,VALID,999.956,VALID,0,VALID,92.3108,VALID,0,VALID,22.4136,VALID,85,VALID,0.371484,
2010-06-28, 00:39:04,VALID,999.959,VALID,0,VALID,92.1734,VALID,0,VALID,22.4331,VALID,85,VALID,0,
2010-06-28, 00:40:04,VALID,1000.02,VALID,0,VALID,92.0743,VALID,0,VALID,22.4136,VALID,85,VALID,0.26875,
2010-06-28, 00:41:04,VALID,999.995,VALID,0,VALID,92.0743,VALID,0,VALID,22.4543,VALID,85,VALID,0.301953,
2010-06-28, 00:42:04,VALID,1000.01,VALID,0,VALID,92.0132,VALID,0,VALID,22.4331,VALID,92,VALID,0.273438,
2010-06-28, 00:43:04,VALID,1000.01,VALID,0,VALID,91.8454,VALID,0,VALID,22.4331,VALID,141,VALID,0.505469,
2010-06-28, 00:44:04,VALID,999.989,VALID,0,VALID,91.6851,VALID,0,VALID,22.4526,VALID,137,VALID,0.613672,
2010-06-28, 00:45:04,VALID,999.991,VALID,0,VALID,91.3494,VALID,0,VALID,22.4933,VALID,118,VALID,0.736328,
2010-06-28, 00:46:04,VALID,1000.01,VALID,0,VALID,91.0671,VALID,0,VALID,22.5111,VALID,118,VALID,0.554688,
2010-06-28, 00:47:04,VALID,999.98,VALID,0,VALID,90.8688,VALID,0,VALID,22.5519,VALID,118,VALID,0.242578,
2010-06-28, 00:48:04,VALID,999.957,VALID,0,VALID,90.7696,VALID,0,VALID,22.5306,VALID,118,VALID,0,
2010-06-28, 00:49:04,VALID,999.946,VALID,0,VALID,90.7391,VALID,0,VALID,22.5111,VALID,118,VALID,0,
2010-06-28, 00:50:04,VALID,999.949,VALID,0,VALID,90.7314,VALID,0,VALID,22.5111,VALID,118,VALID,0,
2010-06-28, 00:51:04,VALID,999.913,VALID,0,VALID,90.7849,VALID,0,VALID,22.4899,VALID,118,VALID,0,
2010-06-28, 00:52:04,VALID,999.871,VALID,0,VALID,90.8993,VALID,0,VALID,22.4916,VALID,118,VALID,0,
2010-06-28, 00:53:04,VALID,999.911,VALID,0,VALID,90.9222,VALID,0,VALID,22.4916,VALID,118,VALID,0,
2010-06-28, 00:54:04,VALID,999.881,VALID,0,VALID,91.0214,VALID,0,VALID,22.5111,VALID,118,VALID,0.515625,
2010-06-28, 00:55:04,VALID,999.902,VALID,0,VALID,91.1511,VALID,0,VALID,22.5111,VALID,6,VALID,0.474609,
2010-06-28, 00:56:04,VALID,999.906,VALID,0,VALID,91.3876,VALID,0,VALID,22.4721,VALID,6,VALID,0.486328,
2010-06-28, 00:57:04,VALID,999.878,VALID,0,VALID,91.5402,VALID,0,VALID,22.4526,VALID,6,VALID,0.441406,
2010-06-28, 00:58:04,VALID,999.917,VALID,0,VALID,91.6699,VALID,0,VALID,22.4331,VALID,6,VALID,0.433984,
2010-06-28, 00:59:04,VALID,999.899,VALID,0,VALID,91.8148,VALID,0,VALID,22.3924,VALID,6,VALID,0.555078,
2010-06-28, 01:00:04,VALID,999.89,VALID,0,VALID,91.9369,VALID,0,VALID,22.3941,VALID,6,VALID,0.720312,
2010-06-28, 01:01:04,VALID,999.877,VALID,0,VALID,92.0514,VALID,0.112286,VALID,22.3534,VALID,6,VALID,0.844141,
2010-06-28, 01:02:04,VALID,999.865,VALID,0,VALID,92.1353,VALID,0.112286,VALID,22.3941,VALID,6,VALID,0.911328,
2010-06-28, 01:03:04,VALID,999.86,VALID,0,VALID,92.2421,VALID,0,VALID,22.3746,VALID,6,VALID,0.794531,
2010-06-28, 01:04:04,VALID,999.845,VALID,0,VALID,92.326,VALID,0,VALID,22.3551,VALID,6,VALID,0.864453,
2010-06-28, 01:05:04,VALID,999.835,VALID,0,VALID,92.4557,VALID,0,VALID,22.3746,VALID,6,VALID,0.876953,
2010-06-28, 01:06:04,VALID,999.817,VALID,0,VALID,92.5854,VALID,0,VALID,22.3746,VALID,6,VALID,0.692187,
2010-06-28, 01:07:04,VALID,999.812,VALID,0,VALID,92.616,VALID,0,VALID,22.3729,VALID,6,VALID,0.571875,
2010-06-28, 01:08:04,VALID,999.841,VALID,0,VALID,92.5931,VALID,0,VALID,22.3729,VALID,6,VALID,0.821875,
2010-06-28, 01:09:04,VALID,999.821,VALID,0,VALID,92.471,VALID,0,VALID,22.3746,VALID,6,VALID,0.473828,
2010-06-28, 01:10:04,VALID,999.862,VALID,0,VALID,92.3947,VALID,0,VALID,22.3339,VALID,6,VALID,0,
2010-06-28, 01:11:04,VALID,999.842,VALID,0,VALID,92.4023,VALID,0,VALID,22.3551,VALID,6,VALID,0.355859,
2010-06-28, 01:12:04,VALID,999.859,VALID,0,VALID,92.5549,VALID,0,VALID,22.3551,VALID,6,VALID,0.414063,
2010-06-28, 01:13:04,VALID,999.805,VALID,0,VALID,92.5626,VALID,0,VALID,22.3339,VALID,6,VALID,0.164453,
2010-06-28, 01:14:04,VALID,999.769,VALID,0,VALID,92.5091,VALID,0,VALID,22.3356,VALID,20,VALID,0.78125,
2010-06-28, 01:15:04,VALID,999.781,VALID,0,VALID,92.5015,VALID,0,VALID,22.3144,VALID,23,VALID,1.19727,
2010-06-28, 01:16:05,VALID,999.777,VALID,0,VALID,92.3718,VALID,0.112286,VALID,22.3339,VALID,27,VALID,1.18906,
2010-06-28, 01:17:05,VALID,999.78,VALID,0,VALID,92.2116,VALID,0,VALID,22.3941,VALID,27,VALID,0.779297,
2010-06-28, 01:18:05,VALID,999.77,VALID,0,VALID,91.998,VALID,0,VALID,22.3941,VALID,27,VALID,0.344531,
2010-06-28, 01:19:05,VALID,999.766,VALID,0,VALID,91.8759,VALID,0,VALID,22.3729,VALID,27,VALID,0.247656,
2010-06-28, 01:20:05,VALID,999.763,VALID,0,VALID,91.8301,VALID,0,VALID,22.3746,VALID,27,VALID,0.402734,
2010-06-28, 01:21:05,VALID,999.762,VALID,0,VALID,91.9827,VALID,0,VALID,22.3941,VALID,44,VALID,1.05703,
2010-06-28, 01:22:05,VALID,999.741,VALID,0,VALID,92.0743,VALID,0,VALID,22.4119,VALID,49,VALID,1.21133,
2010-06-28, 01:23:05,VALID,999.755,VALID,0,VALID,92.0056,VALID,0,VALID,22.4738,VALID,49,VALID,1.2207,
2010-06-28, 01:24:05,VALID,999.73,VALID,0,VALID,91.9369,VALID,0,VALID,22.4509,VALID,49,VALID,1.05273,
2010-06-28, 01:25:05,VALID,999.717,VALID,0,VALID,91.792,VALID,0,VALID,22.4916,VALID,49,VALID,0.841406,
2010-06-28, 01:26:05,VALID,999.704,VALID,0,VALID,91.708,VALID,0,VALID,22.4916,VALID,49,VALID,0.713672,
2010-06-28, 01:27:05,VALID,999.664,VALID,0,VALID,91.502,VALID,0,VALID,22.4721,VALID,42,VALID,0.648438,
2010-06-28, 01:28:05,VALID,999.653,VALID,0,VALID,91.4791,VALID,0,VALID,22.4331,VALID,27,VALID,0.916797,
2010-06-28, 01:29:05,VALID,999.641,VALID,0,VALID,91.6088,VALID,0,VALID,22.3941,VALID,3,VALID,0.911328,
2010-06-28, 01:30:05,VALID,999.654,VALID,0,VALID,91.6851,VALID,0,VALID,22.3746,VALID,354,VALID,0.879297,
2010-06-28, 01:31:05,VALID,999.646,VALID,0,VALID,92.059,VALID,0,VALID,22.3551,VALID,354,VALID,0.960547,
2010-06-28, 01:32:05,VALID,999.635,VALID,0,VALID,92.2574,VALID,0,VALID,22.3551,VALID,343,VALID,0.992188,
2010-06-28, 01:33:05,VALID,999.629,VALID,0,VALID,92.3566,VALID,0,VALID,22.3534,VALID,343,VALID,0.779297,
2010-06-28, 01:34:05,VALID,999.627,VALID,0,VALID,92.3718,VALID,0,VALID,22.3746,VALID,343,VALID,0.523828,
2010-06-28, 01:35:05,VALID,999.6,VALID,0,VALID,92.3871,VALID,0,VALID,22.3746,VALID,343,VALID,0.185547,
2010-06-28, 01:36:05,VALID,999.583,VALID,0,VALID,92.3642,VALID,0,VALID,22.3551,VALID,343,VALID,0,
2010-06-28, 01:37:05,VALID,999.575,VALID,0,VALID,92.3031,VALID,0,VALID,22.3356,VALID,343,VALID,0,
2010-06-28, 01:38:05,VALID,999.545,VALID,0,VALID,92.2803,VALID,0,VALID,22.3161,VALID,343,VALID,0,
2010-06-28, 01:39:05,VALID,999.495,VALID,0,VALID,92.3337,VALID,0,VALID,22.2949,VALID,343,VALID,0,
2010-06-28, 01:40:05,VALID,999.505,VALID,0,VALID,92.3947,VALID,0,VALID,22.2966,VALID,343,VALID,0.231641,
2010-06-28, 01:41:05,VALID,999.51,VALID,0,VALID,92.5778,VALID,0,VALID,22.2966,VALID,348,VALID,0.683203,
2010-06-28, 01:42:05,VALID,999.501,VALID,0,VALID,92.5549,VALID,0.112286,VALID,22.3161,VALID,42,VALID,0.776172,
2010-06-28, 01:43:05,VALID,999.523,VALID,0,VALID,92.3184,VALID,0,VALID,22.2576,VALID,50,VALID,1.01055,
2010-06-28, 01:44:05,VALID,999.507,VALID,0,VALID,92.1811,VALID,0,VALID,22.2381,VALID,50,VALID,1.09258,
2010-06-28, 01:45:05,VALID,999.466,VALID,0,VALID,92.0666,VALID,0,VALID,22.2364,VALID,70,VALID,0.95,
2010-06-28, 01:46:05,VALID,999.475,VALID,0,VALID,91.8911,VALID,0,VALID,22.2381,VALID,91,VALID,0.821094,
2010-06-28, 01:47:05,VALID,999.511,VALID,0,VALID,91.8759,VALID,0,VALID,22.199,VALID,102,VALID,0.976953,
2010-06-28, 01:48:05,VALID,999.487,VALID,0,VALID,92.0437,VALID,0,VALID,22.199,VALID,103,VALID,0.697656,
2010-06-28, 01:49:05,VALID,999.529,VALID,0,VALID,92.2345,VALID,0,VALID,22.16,VALID,103,VALID,0.775781,
2010-06-28, 01:50:05,VALID,999.511,VALID,0,VALID,92.5015,VALID,0,VALID,22.16,VALID,107,VALID,0.817187,
2010-06-28, 01:51:05,VALID,999.525,VALID,0,VALID,92.5854,VALID,0,VALID,22.1389,VALID,116,VALID,0.854688,
2010-06-28, 01:52:05,VALID,999.508,VALID,0,VALID,92.677,VALID,0,VALID,22.16,VALID,127,VALID,0.927344,
2010-06-28, 01:53:05,VALID,999.518,VALID,0,VALID,92.6694,VALID,0,VALID,22.1405,VALID,139,VALID,1.15977,
2010-06-28, 01:54:05,VALID,999.52,VALID,0,VALID,92.7304,VALID,0,VALID,22.1795,VALID,143,VALID,0.803125,
2010-06-28, 01:55:05,VALID,999.507,VALID,0,VALID,92.7533,VALID,0.112286,VALID,22.1795,VALID,153,VALID,1.39141,
2010-06-28, 01:56:05,VALID,999.536,VALID,0,VALID,92.7457,VALID,0,VALID,22.2186,VALID,153,VALID,1.40703,
2010-06-28, 01:57:05,VALID,999.533,VALID,0,VALID,92.7609,VALID,0,VALID,22.2381,VALID,150,VALID,1.41406,
2010-06-28, 01:58:05,VALID,999.547,VALID,0,VALID,92.7228,VALID,0,VALID,22.2771,VALID,150,VALID,1.09141,
2010-06-28, 01:59:05,VALID,999.535,VALID,0,VALID,92.7151,VALID,0,VALID,22.2966,VALID,144,VALID,1.20781,
2010-06-28, 02:00:05,VALID,999.547,VALID,0,VALID,92.6312,VALID,0,VALID,22.3161,VALID,150,VALID,0.876953,
2010-06-28, 02:01:05,VALID,999.535,VALID,0,VALID,92.5854,VALID,0,VALID,22.2966,VALID,148,VALID,0.916016,
2010-06-28, 02:02:05,VALID,999.543,VALID,0,VALID,92.532,VALID,0,VALID,22.3161,VALID,146,VALID,0.871484,
2010-06-28, 02:03:05,VALID,999.519,VALID,0,VALID,92.4939,VALID,0,VALID,22.2966,VALID,139,VALID,0.999609,
2010-06-28, 02:04:05,VALID,999.531,VALID,0,VALID,92.4328,VALID,0,VALID,22.2771,VALID,139,VALID,0.985156,
2010-06-28, 02:05:05,VALID,999.515,VALID,0,VALID,92.471,VALID,0,VALID,22.2966,VALID,128,VALID,0.994141,
2010-06-28, 02:06:05,VALID,999.496,VALID,0,VALID,92.4405,VALID,0,VALID,22.2771,VALID,126,VALID,0.938672,
2010-06-28, 02:07:05,VALID,999.512,VALID,0,VALID,92.3871,VALID,0.112286,VALID,22.2771,VALID,126,VALID,0.704297,
2010-06-28, 02:08:05,VALID,999.516,VALID,0,VALID,92.4252,VALID,0,VALID,22.2576,VALID,131,VALID,0.807422,
2010-06-28, 02:09:05,VALID,999.532,VALID,0,VALID,92.5931,VALID,0,VALID,22.2576,VALID,139,VALID,0.703906,
2010-06-28, 02:10:05,VALID,999.54,VALID,0,VALID,92.6083,VALID,0,VALID,22.2576,VALID,137,VALID,0.6875,
2010-06-28, 02:11:05,VALID,999.538,VALID,0,VALID,92.7151,VALID,0,VALID,22.2576,VALID,119,VALID,0.816016,
2010-06-28, 02:12:05,VALID,999.539,VALID,0,VALID,92.7838,VALID,0,VALID,22.2364,VALID,106,VALID,0.720312,
2010-06-28, 02:13:05,VALID,999.536,VALID,0,VALID,92.7838,VALID,0,VALID,22.2576,VALID,95,VALID,0.998047,
2010-06-28, 02:14:05,VALID,999.534,VALID,0,VALID,92.7838,VALID,0,VALID,22.2364,VALID,107,VALID,0.751953,
2010-06-28, 02:15:05,VALID,999.546,VALID,0,VALID,92.7991,VALID,0,VALID,22.2559,VALID,121,VALID,0.692969,
2010-06-28, 02:16:05,VALID,999.531,VALID,0,VALID,92.822,VALID,0,VALID,22.2771,VALID,125,VALID,0.650781,
2010-06-28, 02:17:05,VALID,999.564,VALID,0,VALID,92.822,VALID,0,VALID,22.2771,VALID,130,VALID,0.717578,
2010-06-28, 02:18:05,VALID,999.539,VALID,0,VALID,92.7838,VALID,0,VALID,22.2966,VALID,135,VALID,0.670703,
2010-06-28, 02:19:05,VALID,999.511,VALID,0,VALID,92.7914,VALID,0,VALID,22.2966,VALID,136,VALID,0.576563,
2010-06-28, 02:20:05,VALID,999.534,VALID,0,VALID,92.7838,VALID,0,VALID,22.2966,VALID,136,VALID,0.391797,
2010-06-28, 02:21:05,VALID,999.529,VALID,0,VALID,92.7609,VALID,0,VALID,22.2966,VALID,136,VALID,0.499609,
2010-06-28, 02:22:05,VALID,999.54,VALID,0,VALID,92.6083,VALID,0,VALID,22.2966,VALID,135,VALID,0.384375,
2010-06-28, 02:23:05,VALID,999.549,VALID,0,VALID,92.5778,VALID,0,VALID,22.2771,VALID,135,VALID,0.279687,
2010-06-28, 02:24:05,VALID,999.573,VALID,0,VALID,92.5931,VALID,0,VALID,22.2771,VALID,173,VALID,1.22812,
2010-06-28, 02:25:05,VALID,999.587,VALID,0,VALID,92.7151,VALID,0,VALID,22.3144,VALID,183,VALID,1.37773,
2010-06-28, 02:26:05,VALID,999.565,VALID,0,VALID,92.5244,VALID,0,VALID,22.4136,VALID,180,VALID,1.05039,
2010-06-28, 02:27:05,VALID,999.537,VALID,0,VALID,92.2726,VALID,0,VALID,22.4119,VALID,180,VALID,0.472266,
2010-06-28, 02:28:05,VALID,999.539,VALID,0,VALID,91.9827,VALID,0,VALID,22.4526,VALID,162,VALID,0.676562,
2010-06-28, 02:29:05,VALID,999.553,VALID,0,VALID,91.7233,VALID,0,VALID,22.4331,VALID,162,VALID,0.457422,
2010-06-28, 02:30:05,VALID,999.532,VALID,0,VALID,91.5936,VALID,0,VALID,22.4331,VALID,178,VALID,0.769531,
2010-06-28, 02:31:05,VALID,999.557,VALID,0,VALID,91.5707,VALID,0,VALID,22.4526,VALID,192,VALID,0.707812,
2010-06-28, 02:32:05,VALID,999.563,VALID,0,VALID,91.4563,VALID,0,VALID,22.4721,VALID,167,VALID,0.726563,
2010-06-28, 02:33:05,VALID,999.535,VALID,0,VALID,91.3266,VALID,0,VALID,22.4721,VALID,150,VALID,0.665234,
2010-06-28, 02:34:05,VALID,999.559,VALID,0,VALID,91.0671,VALID,0,VALID,22.4721,VALID,145,VALID,0.587109,
2010-06-28, 02:35:05,VALID,999.557,VALID,0,VALID,90.9146,VALID,0,VALID,22.4526,VALID,144,VALID,0.394922,
2010-06-28, 02:36:05,VALID,999.535,VALID,0,VALID,90.968,VALID,0,VALID,22.4331,VALID,144,VALID,0.286719,
2010-06-28, 02:37:05,VALID,999.53,VALID,0,VALID,91.0061,VALID,0,VALID,22.3924,VALID,124,VALID,0.535156,
2010-06-28, 02:38:05,VALID,999.526,VALID,0,VALID,91.09,VALID,0,VALID,22.3729,VALID,55,VALID,0.828516,
2010-06-28, 02:39:05,VALID,999.557,VALID,0,VALID,91.3571,VALID,0,VALID,22.3746,VALID,55,VALID,0.907031,
2010-06-28, 02:40:05,VALID,999.56,VALID,0,VALID,91.4944,VALID,0,VALID,22.3746,VALID,55,VALID,0.895312,
2010-06-28, 02:41:05,VALID,999.521,VALID,0,VALID,91.4715,VALID,0,VALID,22.3551,VALID,45,VALID,0.66875,
2010-06-28, 02:42:05,VALID,999.547,VALID,0,VALID,91.4486,VALID,0,VALID,22.3144,VALID,45,VALID,0.269922,
2010-06-28, 02:43:05,VALID,999.568,VALID,0,VALID,91.4868,VALID,0,VALID,22.2966,VALID,45,VALID,0.0105469,
2010-06-28, 02:44:05,VALID,999.589,VALID,0,VALID,91.6394,VALID,0,VALID,22.2771,VALID,141,VALID,0.623438,
2010-06-28, 02:45:05,VALID,999.605,VALID,0,VALID,91.8835,VALID,0,VALID,22.2966,VALID,178,VALID,1.68906,
2010-06-28, 02:46:05,VALID,999.596,VALID,0,VALID,92.0285,VALID,0,VALID,22.3356,VALID,174,VALID,1.73477,
2010-06-28, 02:47:05,VALID,999.607,VALID,0,VALID,91.9751,VALID,0,VALID,22.3339,VALID,171,VALID,0.598828,
2010-06-28, 02:48:05,VALID,999.56,VALID,0,VALID,91.8988,VALID,0,VALID,22.3746,VALID,171,VALID,0.198828,
2010-06-28, 02:49:05,VALID,999.546,VALID,0,VALID,91.8148,VALID,0,VALID,22.3746,VALID,171,VALID,0.0710938,
2010-06-28, 02:50:05,VALID,999.555,VALID,0,VALID,91.8225,VALID,0,VALID,22.3746,VALID,171,VALID,0,
2010-06-28, 02:51:05,VALID,999.566,VALID,0,VALID,91.7843,VALID,0,VALID,22.3763,VALID,171,VALID,0,
2010-06-28, 02:52:05,VALID,999.577,VALID,0,VALID,91.7691,VALID,0,VALID,22.3551,VALID,171,VALID,0,
2010-06-28, 02:53:05,VALID,999.601,VALID,0,VALID,91.8683,VALID,0,VALID,22.3551,VALID,171,VALID,0.483594,
2010-06-28, 02:54:05,VALID,999.609,VALID,0,VALID,91.8988,VALID,0,VALID,22.3551,VALID,171,VALID,0.384766,
2010-06-28, 02:55:05,VALID,999.608,VALID,0,VALID,91.7767,VALID,0,VALID,22.3161,VALID,171,VALID,0.0199219,
2010-06-28, 02:56:05,VALID,999.598,VALID,0,VALID,91.7309,VALID,0,VALID,22.2966,VALID,171,VALID,0.101563,
2010-06-28, 02:57:05,VALID,999.619,VALID,0,VALID,91.792,VALID,0,VALID,22.2771,VALID,171,VALID,0.407813,
2010-06-28, 02:58:05,VALID,999.595,VALID,0,VALID,91.9522,VALID,0,VALID,22.2771,VALID,46,VALID,0.724219,
2010-06-28, 02:59:05,VALID,999.563,VALID,0,VALID,92.0895,VALID,0,VALID,22.2576,VALID,46,VALID,0.851953,
2010-06-28, 03:00:05,VALID,999.581,VALID,0,VALID,92.0971,VALID,0,VALID,22.2771,VALID,46,VALID,0.803906,
2010-06-28, 03:01:05,VALID,999.599,VALID,0,VALID,92.1048,VALID,0,VALID,22.2771,VALID,46,VALID,0.849219,
2010-06-28, 03:02:05,VALID,999.579,VALID,0,VALID,91.9674,VALID,0,VALID,22.2576,VALID,46,VALID,0.725391,
2010-06-28, 03:03:05,VALID,999.583,VALID,0,VALID,91.8683,VALID,0,VALID,22.2186,VALID,46,VALID,0.394922,
2010-06-28, 03:04:05,VALID,999.628,VALID,0,VALID,92.0285,VALID,0,VALID,22.1779,VALID,46,VALID,0.298828,
2010-06-28, 03:05:05,VALID,999.615,VALID,0,VALID,92.204,VALID,0,VALID,22.199,VALID,46,VALID,0.246484,
2010-06-28, 03:06:05,VALID,999.611,VALID,0,VALID,92.265,VALID,0,VALID,22.2186,VALID,46,VALID,0.412109,
2010-06-28, 03:07:05,VALID,999.622,VALID,0,VALID,92.1811,VALID,0,VALID,22.199,VALID,46,VALID,0.447266,
2010-06-28, 03:08:05,VALID,999.625,VALID,0,VALID,92.1582,VALID,0,VALID,22.199,VALID,46,VALID,0.442187,
2010-06-28, 03:09:05,VALID,999.606,VALID,0,VALID,92.1734,VALID,0,VALID,22.16,VALID,46,VALID,0.434375,
2010-06-28, 03:10:05,VALID,999.6,VALID,0,VALID,92.1429,VALID,0,VALID,22.1405,VALID,46,VALID,0.398828,
2010-06-28, 03:11:05,VALID,999.622,VALID,0,VALID,92.1887,VALID,0,VALID,22.1405,VALID,46,VALID,0.117969,
2010-06-28, 03:12:05,VALID,999.595,VALID,0,VALID,92.3031,VALID,0,VALID,22.121,VALID,46,VALID,0,
2010-06-28, 03:13:05,VALID,999.612,VALID,0,VALID,92.3794,VALID,0,VALID,22.1015,VALID,46,VALID,0,
2010-06-28, 03:14:05,VALID,999.563,VALID,0,VALID,92.4863,VALID,0,VALID,22.1015,VALID,46,VALID,0,
2010-06-28, 03:15:05,VALID,999.562,VALID,0,VALID,92.5854,VALID,0,VALID,22.1015,VALID,46,VALID,0,
2010-06-28, 03:16:05,VALID,999.584,VALID,0,VALID,92.6465,VALID,0,VALID,22.1015,VALID,46,VALID,0,
2010-06-28, 03:17:05,VALID,999.574,VALID,0,VALID,92.6236,VALID,0,VALID,22.1015,VALID,46,VALID,0,
2010-06-28, 03:18:05,VALID,999.567,VALID,0,VALID,92.6388,VALID,0,VALID,22.1015,VALID,46,VALID,0,
2010-06-28, 03:19:05,VALID,999.574,VALID,0,VALID,92.6694,VALID,0,VALID,22.0625,VALID,46,VALID,0,
2010-06-28, 03:20:05,VALID,999.556,VALID,0,VALID,92.7533,VALID,0,VALID,22.0625,VALID,46,VALID,0,
2010-06-28, 03:21:05,VALID,999.544,VALID,0,VALID,92.8448,VALID,0,VALID,22.0625,VALID,46,VALID,0,
2010-06-28, 03:22:05,VALID,999.506,VALID,0,VALID,92.9135,VALID,0,VALID,22.0625,VALID,46,VALID,0.101172,
2010-06-28, 03:23:05,VALID,999.469,VALID,0,VALID,92.9898,VALID,0,VALID,22.082,VALID,46,VALID,0.242188,
2010-06-28, 03:24:05,VALID,999.446,VALID,0,VALID,93.0432,VALID,0,VALID,22.0625,VALID,46,VALID,0.198047,
2010-06-28, 03:25:05,VALID,999.407,VALID,0,VALID,93.0432,VALID,0,VALID,22.082,VALID,46,VALID,0.398828,
2010-06-28, 03:26:05,VALID,999.367,VALID,0,VALID,93.1043,VALID,0,VALID,22.0803,VALID,46,VALID,0.539844,
2010-06-28, 03:27:05,VALID,999.331,VALID,0,VALID,93.15,VALID,0,VALID,22.121,VALID,46,VALID,0.738672,
2010-06-28, 03:28:05,VALID,999.332,VALID,0,VALID,93.1195,VALID,0,VALID,22.121,VALID,46,VALID,0.782422,
2010-06-28, 03:29:05,VALID,999.32,VALID,0,VALID,93.0508,VALID,0,VALID,22.121,VALID,46,VALID,0.852344,
2010-06-28, 03:30:05,VALID,999.313,VALID,0,VALID,92.9898,VALID,0,VALID,22.16,VALID,46,VALID,0.766797,
2010-06-28, 03:31:05,VALID,999.302,VALID,0,VALID,92.9745,VALID,0,VALID,22.1405,VALID,46,VALID,0.339844,
2010-06-28, 03:32:05,VALID,999.315,VALID,0,VALID,92.9669,VALID,0,VALID,22.1405,VALID,81,VALID,0.475,
2010-06-28, 03:33:05,VALID,999.341,VALID,0,VALID,92.9669,VALID,0,VALID,22.16,VALID,81,VALID,0.133203,
2010-06-28, 03:34:05,VALID,999.357,VALID,0,VALID,92.9593,VALID,0,VALID,22.16,VALID,81,VALID,0.0179687,
2010-06-28, 03:35:05,VALID,999.34,VALID,0,VALID,92.9517,VALID,0,VALID,22.16,VALID,81,VALID,0,
2010-06-28, 03:36:05,VALID,999.352,VALID,0,VALID,92.944,VALID,0,VALID,22.1795,VALID,81,VALID,0,
2010-06-28, 03:37:05,VALID,999.365,VALID,0,VALID,92.944,VALID,0,VALID,22.1795,VALID,81,VALID,0,
2010-06-28, 03:38:05,VALID,999.334,VALID,0,VALID,92.9517,VALID,0,VALID,22.199,VALID,81,VALID,0,
2010-06-28, 03:39:05,VALID,999.352,VALID,0,VALID,92.9364,VALID,0,VALID,22.199,VALID,81,VALID,0,
2010-06-28, 03:40:05,VALID,999.336,VALID,0,VALID,92.944,VALID,0,VALID,22.2186,VALID,81,VALID,0,
2010-06-28, 03:41:05,VALID,999.353,VALID,0,VALID,92.9211,VALID,0,VALID,22.2186,VALID,81,VALID,0,
2010-06-28, 03:42:05,VALID,999.364,VALID,0,VALID,92.9364,VALID,0,VALID,22.2576,VALID,81,VALID,0.125391,
2010-06-28, 03:43:05,VALID,999.349,VALID,0,VALID,92.9135,VALID,0,VALID,22.2771,VALID,51,VALID,0.765625,
2010-06-28, 03:44:05,VALID,999.354,VALID,0,VALID,92.8677,VALID,0,VALID,22.2559,VALID,38,VALID,0.7625,
2010-06-28, 03:45:05,VALID,999.344,VALID,0,VALID,92.8296,VALID,0,VALID,22.2966,VALID,38,VALID,0.446094,
2010-06-28, 03:46:05,VALID,999.366,VALID,0,VALID,92.7914,VALID,0,VALID,22.2966,VALID,38,VALID,0.0121094,
2010-06-28, 03:47:05,VALID,999.356,VALID,0,VALID,92.7685,VALID,0,VALID,22.2966,VALID,38,VALID,0,